This is the latest recevied weather packets stored in our database for station/object KA7EII-13. If no packets are shown the sender has not sent any weather packets the latest 10 day(s).
| Time | Temp. | Humidity | Pressure | Rain* | Wind** | Luminosity | Snow |
|---|---|---|---|---|---|---|---|
| 1777641554 | 0° C | 81% | 1111.2 hPa | 0 mm | - | 25 W/m² | - |
| 1777641249 | -0.56° C | 82% | 1111.2 hPa | 0 mm | - | 23 W/m² | - |
| 1777640946 | -1.11° C | 83% | 1111.3 hPa | 0 mm | - | 21 W/m² | - |
| 1777640644 | -1.11° C | 84% | 1110.9 hPa | 0 mm | - | 19 W/m² | - |
| 1777640339 | -1.11° C | 83% | 1111.2 hPa | 0 mm | - | 18 W/m² | - |
| 1777640036 | -1.11° C | 83% | 1111.2 hPa | 0 mm | - | 16 W/m² | - |
| 1777639733 | -1.67° C | 84% | 1111 hPa | 0 mm | - | 13 W/m² | - |
| 1777639431 | -1.67° C | 84% | 1110.9 hPa | 0 mm | - | 11 W/m² | - |
| 1777639131 | -1.67° C | 84% | 1111 hPa | 0 mm | - | 9 W/m² | - |
| 1777638828 | -1.67° C | 84% | 1110.8 hPa | 0 mm | - | 6 W/m² | - |
| 1777638523 | -1.67° C | 84% | 1110.9 hPa | 0 mm | - | 4 W/m² | - |
| 1777638220 | -1.67° C | 85% | 1110.8 hPa | 0 mm | - | 2 W/m² | - |
| 1777637916 | -1.67° C | 85% | 1110.8 hPa | 0 mm | - | 0 W/m² | - |
| 1777637608 | -1.67° C | 85% | 1110.7 hPa | 0 mm | - | 0 W/m² | - |
| 1777637305 | -1.11° C | 85% | 1110.8 hPa | 0 mm | - | 0 W/m² | - |
| 1777637002 | -1.11° C | 84% | 1110.8 hPa | 0 mm | - | 0 W/m² | - |
| 1777636697 | -1.11° C | 84% | 1110.8 hPa | 0 mm | - | 0 W/m² | - |
| 1777636394 | -1.11° C | 83% | 1110.5 hPa | 0 mm | - | 0 W/m² | - |
| 1777636090 | -1.11° C | 82% | 1110.5 hPa | 0 mm | - | 0 W/m² | - |
| 1777635785 | -0.56° C | 81% | 1110.5 hPa | 0 mm | - | 0 W/m² | - |
| 1777635482 | -0.56° C | 80% | 1110.3 hPa | 0 mm | - | 0 W/m² | - |
| 1777635178 | -0.56° C | 79% | 1110.7 hPa | 0 mm | - | 0 W/m² | - |
| 1777634875 | -0.56° C | 80% | 1110.5 hPa | 0 mm | - | 0 W/m² | - |
| 1777634572 | -0.56° C | 80% | 1110.3 hPa | 0 mm | - | 0 W/m² | - |
| 1777634269 | -0.56° C | 80% | 1110.3 hPa | 0 mm | - | 0 W/m² | - |
* Rain latest hour (hover to see other rain measurements)
** Current wind speed in m/s (hover to see current wind gust speed)